User: anonymous   Login
Location: Palmerston North
(40.3500°S, 175.6170°E)
Time: 21:56:26
(UTC+13:00)
Language:

IRAS Rocket - Orbit

View from above orbital plane
View from above orbital plane
View from above satellite
View from above satellite

Ground track
Ground track

The orbit data is extracted from the following two-line orbital elements,

1 13778U 83004B   19324.68177324 -.00000051 +00000-0 +17577-5 0  9997
2 13778 100.0349 060.9154 0020418 304.5449 055.3789 14.09011601891619
Epoch (UTC): 20 November 2019 16:21:45
Eccentricity: 0.0020418
inclination: 100.0349°
perigee height: 848 km
apogee height: 877 km
right ascension of ascending node: 60.9154°
argument of perigee: 304.5449°
revolutions per day: 14.09011601
mean anomaly at epoch: 55.3789°
orbit number at epoch: 89161

The dashed part of the orbit path shows where the satellite is in the earth's shadow,  

DLR